Linn Creek, MO

1:52 AM CST on February 22, 2017 (GMT -0600)
Fine Memorial

Weather History for KAIZ - February, 2014

Change the Weather History Date:

Wednesday, February 5, 2014

  Actual Average Record
Temperature  
Mean Temperature 12 °F -  
Max Temperature 19 °F 43 °F 62 °F (1999)
Min Temperature 6 °F 25 °F 6 °F (2014)
Degree Days  
Heating Degree Days 52    
Moisture  
Dew Point 5 °F    
Average Humidity 68    
Maximum Humidity 86    
Minimum Humidity 57    
Precipitation  
Precipitation 0.00 in - - ()
Sea Level Pressure  
Sea Level Pressure 30.40 in    
Wind  
Wind Speed 8 mph (NW)    
Max Wind Speed 14 mph    
Max Gust Speed 22 mph    
Visibility 8 miles    
Events      
Averages and records for this station are not official NWS values.
T = Trace of Precipitation, MM = Missing Value Source: NWS Daily Summary

Daily Weather History Graph

Daily Weather History Graph

Search for Another Location

Airport or City:

Trip Planner

Search our weather history database for the weather conditions in past years. The results will help you decide how hot, cold, wet, or windy it might be!

Date:

Astronomy

Feb. 05, 2014 Rise Set
Actual Time 7:11 AM CST 5:37 PM CST
Civil Twilight 6:43 AM CST 6:05 PM CST
Nautical Twilight 6:12 AM CST 6:36 PM CST
Astronomical Twilight 5:41 AM CST 7:07 PM CST
Moon 10:32 AM CST (2/5) No Moon Set
Length of Visible Light 11h 21m
Length of Day
10h 26m
Waxing Crescent, 39% of the Moon is Illuminated
Feb 5
Waxing Crescent
Feb 6
First Quarter
Feb 14
Full
Feb 22
Last Quarter
Mar 1
New

Hourly Weather History & Observations

Time (CST) Temp. Windchill Dew Point Humidity Pressure Visibility Wind Dir Wind Speed Gust Speed Precip Events Conditions
12:15 AM 19.4 °F 14.3 °F 15.8 °F 86% 30.03 in 7.0 mi North 3.5 mph - N/A   Overcast
12:35 AM 19.4 °F 9.5 °F 14.0 °F 80% 30.03 in 7.0 mi North 8.1 mph - N/A   Overcast
12:55 AM 19.4 °F 10.4 °F 12.2 °F 74% 30.04 in 4.0 mi North 6.9 mph - N/A   Overcast
1:15 AM 19.4 °F 8.6 °F 12.2 °F 74% 30.06 in 2.5 mi NNW 9.2 mph - N/A   Overcast
1:35 AM 17.6 °F 10.7 °F 12.2 °F 79% 30.06 in 3.0 mi NNW 4.6 mph - N/A   Overcast
1:55 AM 17.6 °F 9.3 °F 12.2 °F 79% 30.08 in 3.0 mi NNW 5.8 mph - N/A   Overcast
2:15 AM 17.6 °F 9.3 °F 12.2 °F 79% 30.09 in 2.0 mi NW 5.8 mph - N/A   Overcast
2:35 AM 17.6 °F 9.3 °F 12.2 °F 79% 30.10 in 2.0 mi NW 5.8 mph - N/A   Overcast
2:55 AM 17.6 °F 8.2 °F 12.2 °F 79% 30.11 in 3.0 mi NW 6.9 mph - N/A   Overcast
3:15 AM 17.6 °F 7.3 °F 12.2 °F 79% 30.13 in 3.0 mi NW 8.1 mph - N/A   Overcast
3:35 AM 17.6 °F 7.3 °F 12.2 °F 79% 30.14 in 4.0 mi NW 8.1 mph - N/A   Overcast
3:55 AM 17.6 °F 10.7 °F 12.2 °F 79% 30.15 in 4.0 mi NW 4.6 mph - N/A   Overcast
4:15 AM 17.6 °F 6.4 °F 10.4 °F 73% 30.16 in 5.0 mi NW 9.2 mph 18.4 mph N/A   Overcast
4:35 AM 17.6 °F 5.7 °F 12.2 °F 79% 30.18 in 7.0 mi NW 10.4 mph 17.3 mph N/A   Overcast
4:55 AM 17.6 °F 8.2 °F 10.4 °F 73% 30.19 in 8.0 mi NW 6.9 mph - N/A   Overcast
5:15 AM 17.6 °F 7.3 °F 10.4 °F 73% 30.21 in 10.0 mi NW 8.1 mph 18.4 mph N/A   Overcast
5:35 AM 17.6 °F 5.0 °F 8.6 °F 68% 30.23 in 7.0 mi WNW 11.5 mph 21.9 mph N/A   Overcast
5:55 AM 15.8 °F 1.4 °F 8.6 °F 73% 30.25 in 10.0 mi NW 13.8 mph 21.9 mph N/A   Overcast
6:15 AM 15.8 °F 5.1 °F 8.6 °F 73% 30.27 in 10.0 mi NW 8.1 mph 17.3 mph N/A   Overcast
6:35 AM 15.8 °F 2.7 °F 8.6 °F 73% 30.28 in 5.0 mi NW 11.5 mph 17.3 mph N/A   Overcast
6:55 AM 15.8 °F 2.1 °F 8.6 °F 73% 30.30 in 3.0 mi NW 12.7 mph 19.6 mph N/A   Overcast
7:15 AM 12.2 °F 0.7 °F 6.8 °F 79% 30.32 in 5.0 mi NW 8.1 mph 16.1 mph N/A   Overcast
7:35 AM 12.2 °F -1.0 °F 6.8 °F 79% 30.33 in 3.0 mi NW 10.4 mph 17.3 mph N/A   Overcast
7:55 AM 12.2 °F -1.8 °F 3.2 °F 67% 30.35 in 8.0 mi NW 11.5 mph 17.3 mph N/A   Overcast
8:15 AM 12.2 °F -1.8 °F 5.0 °F 73% 30.37 in 10.0 mi NW 11.5 mph - N/A   Mostly Cloudy
8:35 AM 10.4 °F -1.5 °F 3.2 °F 73% 30.39 in 10.0 mi NW 8.1 mph 19.6 mph N/A   Overcast
8:55 AM 10.4 °F -1.5 °F 3.2 °F 73% 30.41 in 10.0 mi NW 8.1 mph 16.1 mph N/A   Overcast
9:15 AM 10.4 °F -0.4 °F 3.2 °F 73% 30.42 in 10.0 mi NW 6.9 mph 18.4 mph N/A   Overcast
9:35 AM 10.4 °F -1.5 °F 3.2 °F 73% 30.43 in 10.0 mi NW 8.1 mph 17.3 mph N/A   Overcast
9:55 AM 10.4 °F -1.5 °F 3.2 °F 73% 30.43 in 10.0 mi WNW 8.1 mph - N/A   Overcast
10:15 AM 12.2 °F -1.8 °F 1.4 °F 62% 30.44 in 10.0 mi NW 11.5 mph 18.4 mph N/A   Mostly Cloudy
10:35 AM 12.2 °F -1.0 °F 3.2 °F 67% 30.44 in 9.0 mi NW 10.4 mph 17.3 mph N/A   Scattered Clouds
10:55 AM 12.2 °F -1.0 °F 3.2 °F 67% 30.44 in 10.0 mi NNW 10.4 mph - N/A   Mostly Cloudy
11:15 AM 14.0 °F 1.2 °F 3.2 °F 62% 30.45 in 10.0 mi WNW 10.4 mph 16.1 mph N/A   Mostly Cloudy
11:35 AM 14.0 °F 5.1 °F 3.2 °F 62% 30.45 in 10.0 mi NW 5.8 mph - N/A   Overcast
11:55 AM 14.0 °F 3.9 °F 3.2 °F 62% 30.45 in 10.0 mi NW 6.9 mph - N/A   Overcast
12:15 PM 14.0 °F 1.2 °F 1.4 °F 57% 30.46 in 10.0 mi WNW 10.4 mph - N/A   Overcast
12:35 PM 14.0 °F 0.5 °F 3.2 °F 62% 30.46 in 10.0 mi West 11.5 mph 16.1 mph N/A   Overcast
12:55 PM 15.8 °F 6.1 °F 3.2 °F 58% 30.45 in 10.0 mi NW 6.9 mph - N/A   Overcast
1:15 PM 15.8 °F 6.1 °F 3.2 °F 58% 30.45 in 10.0 mi NW 6.9 mph 16.1 mph N/A   Overcast
1:35 PM 15.8 °F 6.1 °F 3.2 °F 58% 30.45 in 10.0 mi NW 6.9 mph - N/A   Overcast
1:55 PM 15.8 °F 7.2 °F 3.2 °F 58% 30.46 in 10.0 mi WNW 5.8 mph - N/A   Overcast
2:15 PM 15.8 °F 6.1 °F 3.2 °F 58% 30.47 in 10.0 mi WNW 6.9 mph 16.1 mph N/A   Overcast
2:35 PM 15.8 °F 4.2 °F 3.2 °F 58% 30.48 in 10.0 mi WNW 9.2 mph 16.1 mph N/A   Overcast
2:55 PM 15.8 °F 6.1 °F 3.2 °F 58% 30.49 in 10.0 mi WNW 6.9 mph - N/A   Overcast
3:15 PM 15.8 °F 5.1 °F 3.2 °F 58% 30.50 in 10.0 mi WNW 8.1 mph - N/A   Overcast
3:35 PM 14.0 °F 3.9 °F 3.2 °F 62% 30.50 in 10.0 mi WNW 6.9 mph - N/A   Overcast
3:55 PM 14.0 °F 2.9 °F 1.4 °F 57% 30.50 in 10.0 mi NW 8.1 mph - N/A   Overcast
4:15 PM 12.2 °F -0.2 °F 3.2 °F 67% 30.51 in 10.0 mi WNW 9.2 mph 16.1 mph N/A   Overcast
4:35 PM 12.2 °F 0.7 °F 3.2 °F 67% 30.51 in 10.0 mi NW 8.1 mph - N/A   Overcast
4:55 PM 12.2 °F -1.0 °F 1.4 °F 62% 30.52 in 10.0 mi NNW 10.4 mph - N/A   Overcast
5:15 PM 12.2 °F 2.9 °F 3.2 °F 67% 30.53 in 10.0 mi NNW 5.8 mph - N/A   Overcast
5:35 PM 12.2 °F 0.7 °F 1.4 °F 62% 30.54 in 10.0 mi NNW 8.1 mph - N/A   Overcast
5:55 PM 12.2 °F -0.2 °F 3.2 °F 67% 30.55 in 10.0 mi NNW 9.2 mph - N/A   Overcast
6:15 PM 10.4 °F -0.4 °F 1.4 °F 67% 30.56 in 10.0 mi NNW 6.9 mph - N/A   Overcast
6:35 PM 10.4 °F -0.4 °F 3.2 °F 73% 30.57 in 10.0 mi NW 6.9 mph - N/A   Overcast
6:55 PM 10.4 °F -2.4 °F 1.4 °F 67% 30.57 in 10.0 mi NW 9.2 mph - N/A   Overcast
7:15 PM 10.4 °F -0.4 °F 1.4 °F 67% 30.57 in 10.0 mi NNW 6.9 mph - N/A   Overcast
7:35 PM 10.4 °F 2.2 °F -0.4 °F 62% 30.58 in 10.0 mi NNW 4.6 mph - N/A   Overcast
7:55 PM 10.4 °F -1.5 °F -0.4 °F 62% 30.60 in 10.0 mi WNW 8.1 mph - N/A   Overcast
8:15 PM 8.6 °F -3.7 °F -0.4 °F 67% 30.61 in 10.0 mi WNW 8.1 mph - N/A   Overcast
8:35 PM 8.6 °F -2.6 °F -0.4 °F 67% 30.61 in 10.0 mi NW 6.9 mph - N/A   Overcast
8:55 PM 8.6 °F -2.6 °F -0.4 °F 67% 30.61 in 10.0 mi NW 6.9 mph - N/A   Overcast
9:15 PM 8.6 °F -4.7 °F -2.2 °F 62% 30.61 in 10.0 mi NNW 9.2 mph - N/A   Overcast
9:35 PM 8.6 °F -1.3 °F -0.4 °F 67% 30.61 in 10.0 mi NNW 5.8 mph - N/A   Overcast
9:55 PM 8.6 °F 2.0 °F -2.2 °F 62% 30.63 in 10.0 mi NNW 3.5 mph - N/A   Overcast
10:15 PM 8.6 °F -2.6 °F -0.4 °F 67% 30.61 in 10.0 mi NW 6.9 mph - N/A   Overcast
10:35 PM 8.6 °F -1.3 °F -2.2 °F 62% 30.62 in 10.0 mi NNW 5.8 mph - N/A   Overcast
10:55 PM 8.6 °F -1.3 °F -2.2 °F 62% 30.61 in 10.0 mi NNW 5.8 mph - N/A   Overcast
11:15 PM 6.8 °F -4.8 °F -4.0 °F 61% 30.61 in 10.0 mi North 6.9 mph - N/A   Overcast
11:35 PM 6.8 °F -4.8 °F -2.2 °F 67% 30.59 in 10.0 mi North 6.9 mph - N/A   Overcast
11:55 PM 6.8 °F -4.8 °F -2.2 °F 67% 30.61 in 10.0 mi NNW 6.9 mph - N/A   Overcast